User: anonymous   Login
Location: Columbia
(38.9520°N, 92.3340°W)
Time: 05:39:32
(UTC-05:00)
Language:

Meteor 1-4 Rocket - Orbit

View from above orbital plane
View from above orbital plane
View from above satellite
View from above satellite

Ground track
Ground track

The orbit data is extracted from the following two-line orbital elements,

1 04394U 70037B   16176.82935831  .00001116  00000-0  40061-4 0  9991
2 04394  81.2437  74.0770 0040678 263.3113  96.3492 15.27008857510211
Epoch (UTC): 24 June 2016 19:54:16
Eccentricity: 0.0040678
inclination: 81.2437°
perigee height: 457 km
apogee height: 512 km
right ascension of ascending node: 74.0770°
argument of perigee: 263.3113°
revolutions per day: 15.27008857
mean anomaly at epoch: 96.3492°
orbit number at epoch: 51021

The dashed part of the orbit path shows where the satellite is in the earth's shadow,  

DLR